| time (UTC) | temp C | wind direction | speed KPH | gust KPH | rain 1hr cm | rain 24hr cm | rain mn cm | humidity % | barometer mb |
| 20260506102318 | 7 | 196 | 32.2 | 54.7 | 0.05 | 0.84 | 0.66 | 89 | 1008.2 |
| 20260506094326 | 7 | 214 | 20.9 | 32.2 | 0.08 | 0.81 | 0.64 | 90 | 1008.4 |
| 20260506091332 | 7 | 194 | 16.1 | 29.0 | 0.08 | 0.79 | 0.61 | 90 | 1008.5 |
| 20260506073321 | 6 | 190 | 19.3 | 40.2 | 0.08 | 1.09 | 0.48 | 90 | 1008.0 |
| 20260506072315 | 6 | 11 | 4.8 | 22.5 | 0.08 | 1.09 | 0.48 | 90 | 1007.9 |
| 20260506071328 | 6 | 37 | 1.6 | 6.4 | 0.08 | 1.07 | 0.46 | 90 | 1008.0 |
| 20260506062327 | 6 | 96 | 1.6 | 11.3 | 0.08 | 1.40 | 0.41 | 90 | 1008.4 |
| 20260506061321 | 6 | 57 | 4.8 | 9.7 | 0.08 | 1.37 | 0.38 | 90 | 1008.5 |
| 20260506060319 | 6 | 71 | 1.6 | 4.8 | 0.08 | 1.60 | 0.38 | 90 | 1008.6 |
| 20260506051315 | 6 | 16 | 8.0 | 14.5 | 0.08 | 1.52 | 0.30 | 89 | 1009.4 |
| 20260506050312 | 6 | 92 | 4.8 | 16.1 | 0.08 | 1.83 | 0.30 | 89 | 1009.3 |
| 20260506041313 | 5 | 67 | 4.8 | 8.0 | 0.10 | 1.75 | 0.23 | 89 | 1009.6 |
| 20260506034320 | 4 | 62 | 3.2 | 8.0 | 0.08 | 1.85 | 0.18 | 89 | 1009.5 |
| 20260506033314 | 4 | 157 | 0.0 | 8.0 | 0.10 | 1.85 | 0.18 | 88 | 1009.9 |
| 20260506030323 | 5 | 66 | 6.4 | 11.3 | 0.10 | 1.88 | 0.13 | 88 | 1010.3 |
| 20260506025313 | 5 | 81 | 1.6 | 6.4 | 0.08 | 1.85 | 0.10 | 89 | 1010.6 |
| 20260506023321 | 5 | 34 | 4.8 | 8.0 | 0.08 | 1.83 | 0.08 | 89 | 1010.5 |
| 20260506022317 | 5 | 16 | 6.4 | 6.4 | 0.08 | 1.83 | 0.08 | 89 | 1010.7 |
| 20260506012314 | 6 | 144 | 0.0 | 3.2 | 0.00 | 1.75 | 0.00 | 89 | 1011.0 |
| 20260506010327 | 6 | 174 | 8.0 | 11.3 | 0.00 | 1.75 | 0.00 | 89 | 1011.3 |
| 20260506004316 | 6 | 182 | 4.8 | 12.9 | 0.00 | 1.75 | 0.00 | 89 | 1011.2 |
| 20260506003327 | 6 | 188 | 11.3 | 17.7 | 0.00 | 1.75 | 0.00 | 89 | 1011.3 |
| 20260506002322 | 6 | 177 | 16.1 | 24.1 | 0.00 | 1.75 | 0.00 | 89 | 1011.3 |
| 20260506001321 | 6 | 210 | 19.3 | 25.7 | 0.00 | 1.75 | 0.00 | 90 | 1011.0 |
| 20260505235328 | 6 | 182 | 12.9 | 20.9 | 0.00 | 1.75 | 0.00 | 89 | 1011.7 |
| 20260505234322 | 5 | 207 | 12.9 | 17.7 | 0.00 | 1.75 | 0.00 | 89 | 1011.8 |
| 20260505232313 | 5 | 200 | 16.1 | 20.9 | 0.00 | 1.75 | 0.00 | 90 | 1011.8 |
| 20260505231327 | 5 | 196 | 12.9 | 19.3 | 0.00 | 1.75 | 0.00 | 90 | 1012.0 |
| 20260505225315 | 5 | 208 | 14.5 | 17.7 | 0.00 | 1.75 | 0.00 | 90 | 1011.9 |
| 20260505224331 | 5 | 186 | 16.1 | 24.1 | 0.00 | 1.75 | 0.00 | 90 | 1012.0 |
| 20260505223331 | 5 | 186 | 12.9 | 17.7 | 0.00 | 1.75 | 0.00 | 90 | 1012.2 |
| 20260505214322 | 5 | 199 | 11.3 | 14.5 | 0.00 | 1.75 | 1.75 | 90 | 1012.3 |
| 20260505213322 | 5 | 193 | 11.3 | 16.1 | 0.00 | 1.75 | 1.75 | 90 | 1012.3 |
| 20260505210320 | 5 | 188 | 9.7 | 17.7 | 0.00 | 1.75 | 1.75 | 90 | 1012.6 |
| 20260505205314 | 6 | 169 | 9.7 | 14.5 | 0.03 | 1.75 | 1.75 | 90 | 1012.6 |
| 20260505204328 | 6 | 173 | 8.0 | 12.9 | 0.03 | 1.75 | 1.75 | 90 | 1012.8 |
| 20260505201313 | 5 | 196 | 8.0 | 17.7 | 0.03 | 1.75 | 1.75 | 90 | 1012.9 |
| 20260505194313 | 6 | 181 | 17.7 | 22.5 | 0.00 | 1.73 | 1.73 | 90 | 1012.7 |
| 20260505193330 | 6 | 227 | 16.1 | 19.3 | 0.00 | 1.73 | 1.73 | 90 | 1012.6 |
| 20260505191318 | 6 | 222 | 19.3 | 24.1 | 0.00 | 1.73 | 1.73 | 90 | 1012.4 |
| 20260505185328 | 6 | 200 | 19.3 | 27.4 | 0.00 | 1.73 | 1.73 | 90 | 1012.4 |
| 20260505184321 | 6 | 202 | 12.9 | 19.3 | 0.00 | 1.73 | 1.73 | 90 | 1012.3 |
| 20260505183321 | 6 | 209 | 16.1 | 22.5 | 0.00 | 1.73 | 1.73 | 90 | 1012.3 |
| 20260505181331 | 6 | 195 | 11.3 | 20.9 | 0.00 | 1.73 | 1.73 | 90 | 1012.3 |
| 20260505180327 | 6 | 208 | 12.9 | 17.7 | 0.00 | 1.73 | 1.73 | 90 | 1012.2 |
| 20260505174319 | 6 | 194 | 14.5 | 25.7 | 0.00 | 1.73 | 1.73 | 90 | 1012.2 |
| 20260505173312 | 6 | 185 | 16.1 | 24.1 | 0.00 | 1.73 | 1.73 | 90 | 1012.2 |
| 20260505161326 | 7 | 177 | 14.5 | 19.3 | 0.00 | 1.73 | 1.73 | 90 | 1012.3 |
| 20260505152318 | 7 | 209 | 9.7 | 17.7 | 0.00 | 1.73 | 1.73 | 90 | 1012.3 |
| 20260505150327 | 7 | 198 | 11.3 | 17.7 | 0.03 | 1.73 | 1.73 | 90 | 1013.0 |
| 20260505140320 | 8 | 181 | 12.9 | 19.3 | 0.00 | 1.70 | 1.70 | 89 | 1013.0 |
| 20260505120324 | 8 | 200 | 6.4 | 9.7 | 0.05 | 1.70 | 1.70 | 89 | 1013.2 |
| 20260505114319 | 7 | 142 | 4.8 | 11.3 | 0.08 | 1.70 | 1.70 | 90 | 1013.2 |
| 20260505112329 | 7 | 94 | 3.2 | 12.9 | 0.10 | 1.70 | 1.70 | 90 | 1013.1 |
| 20260505110322 | 7 | 39 | 0.0 | 6.4 | 0.08 | 1.65 | 1.65 | 90 | 1013.2 |